Hourly Data Report for May 25, 2021

WIARTON A
ONTARIO
Current Station Operator: NAVCAN

44°44'39.000" N
81°06'31.000" W
221.90 m
6119499
71633
YVV

Download Data

Hourly Data (May 2021)
Hourly Data Report for May 25, 2021
TIME
LST
Temp Definition
°C
Dew Point Definition
°C
Rel Hum Definition
%
Precip. Amount Definition
mm

Wind Dir Definition
10's deg

Wind Spd Definition
km/h
Visibility Definition
km
Stn Press Definition
kPa
Hmdx Definition


Wind Chill Definition


Weather Definition


00:00 16.9 12.9 77   19 11 24.1 99.10     LegendNANA
01:00 17.2 14.1 82   20 14 24.1 99.06     Mainly Clear
02:00 17.7 14.5 81   19 15 24.1 99.00     LegendNANA
03:00 17.4 14.5 83   18 14 24.1 98.97     LegendNANA
04:00 17.8 14.9 83   19 16 24.1 98.92     Mostly Cloudy
05:00 17.7 15.3 86   19 14 24.1 98.89     LegendNANA
06:00 18.9 16.2 84   19 20 24.1 98.84     LegendNANA
07:00 20.8 17.3 80   21 19 24.1 98.83 26   Mostly Cloudy
08:00 23.4 16.7 65   23 27 24.1 98.79 28   LegendNANA
09:00 23.8 16.4 63   23 27 19.3 98.79 29   LegendNANA
10:00 24.3 15.3 57   22 28 19.3 98.79 28   Cloudy
11:00 24.8 15.4 56   24 26 19.3 98.77 29   LegendNANA
12:00 26.1 15.9 53   24 23 19.3 98.75 31   LegendNANA
13:00 27.0 16.4 52   23 25 19.3 98.71 32   Mostly Cloudy
14:00 26.9 16.1 51   24 32 19.3 98.66 32   LegendNANA
15:00 26.1 14.8 49   24 32 19.3 98.62 30   LegendNANA
16:00 26.9 15.8 50   24 22 19.3 98.56 31   Mostly Cloudy
17:00 25.2 14.6 51   24 20 24.1 98.53 29   LegendNANA
18:00 24.8 13.8 50   23 22 24.1 98.50 28   LegendNANA
19:00 24.5 13.7 50   24 21 19.3 98.47 28   Rain Showers
20:00 23.9 13.7 52   22 17 24.1 98.45 27   LegendNANA
21:00 22.9 13.0 53   23 17 24.1 98.46 26   LegendNANA
22:00 21.8 13.4 58   21 15 24.1 98.47 25   Mainly Clear
23:00 22.4 13.8 58   21 21 24.1 98.43 26   LegendNANA

Notes on Data Quality.

Legend

  • E = Estimated
  • M = Missing
  • NA = Not Available*
  • [empty] = Indicates an unobserved value
Date modified: